EN

Hourly Weather Boyarskiy

Today, 16 April, Friday

Time Temperature Precipitation Wind Pressure Humidity
00:00 -4°C° 0.1 mm 4 mps 724 mmHg 89%
01:00 -5°C° 0 mm 4 mps 724 mmHg 90%
02:00 -5°C° 0 mm 3 mps 724 mmHg 91%
03:00 -6°C° 0 mm 3 mps 724 mmHg 92%
04:00 -6°C° 0 mm 3 mps 724 mmHg 92%
05:00 -4°C° 0 mm 2 mps 724 mmHg 86%
06:00 -3°C° 0 mm 2 mps 724 mmHg 81%
07:00 -2°C° 0 mm 2 mps 725 mmHg 75%
08:00 -1°C° 0 mm 2 mps 724 mmHg 68%
09:00 +2°C° 0 mm 2 mps 724 mmHg 61%
10:00 +3°C° 0 mm 2 mps 724 mmHg 53%
11:00 +4°C° 0 mm 2 mps 723 mmHg 51%
12:00 +6°C° 0 mm 1 mps 723 mmHg 49%
13:00 +7°C° 0 mm 1 mps 722 mmHg 46%
14:00 +8°C° 0 mm 1 mps 722 mmHg 46%
15:00 +8°C° 0 mm 1 mps 721 mmHg 45%
16:00 +9°C° 0 mm 1 mps 720 mmHg 44%
17:00 +7°C° 0 mm 1 mps 720 mmHg 55%
18:00 +4°C° 0 mm 2 mps 719 mmHg 66%
19:00 +2°C° 0 mm 2 mps 719 mmHg 77%
20:00 +1°C° 0 mm 2 mps 719 mmHg 76%
21:00 +1°C° 0 mm 2 mps 718 mmHg 75%
22:00 -1°C° 0 mm 2 mps 718 mmHg 74%
23:00 -1°C° 0 mm 2 mps 718 mmHg 74%

Tomorrow, 17 April, Saturday

Time Temperature Precipitation Wind Pressure Humidity
00:00 -1°C° 0 mm 2 mps 717 mmHg 73%
01:00 -1°C° 0 mm 2 mps 717 mmHg 73%
02:00 -2°C° 0 mm 2 mps 717 mmHg 73%
03:00 -2°C° 0 mm 2 mps 716 mmHg 74%
04:00 -2°C° 0 mm 2 mps 716 mmHg 75%
05:00 +2°C° 0 mm 1 mps 716 mmHg 72%
06:00 +4°C° 0 mm 1 mps 716 mmHg 68%
07:00 +5°C° 0 mm 1 mps 715 mmHg 65%
08:00 +7°C° 0 mm 1 mps 715 mmHg 61%
09:00 +9°C° 0 mm 1 mps 715 mmHg 57%
10:00 +11°C° 0 mm 1 mps 714 mmHg 53%
11:00 +12°C° 0 mm 1 mps 714 mmHg 52%
12:00 +13°C° 0 mm 1 mps 714 mmHg 50%
13:00 +14°C° 0 mm 1 mps 713 mmHg 48%
14:00 +14°C° 0 mm 1 mps 713 mmHg 50%
15:00 +14°C° 0 mm 1 mps 712 mmHg 52%
16:00 +14°C° 0 mm 1 mps 712 mmHg 53%
17:00 +11°C° 0 mm 1 mps 712 mmHg 61%
18:00 +8°C° 0 mm 2 mps 712 mmHg 69%
19:00 +6°C° 0 mm 2 mps 712 mmHg 77%
20:00 +4°C° 0 mm 4 mps 713 mmHg 81%
21:00 +2°C° 0 mm 5 mps 715 mmHg 85%
22:00 0°C° 0 mm 7 mps 716 mmHg 90%
23:00 -1°C° 0.4 mm 6 mps 716 mmHg 92%

Day after tomorrow, 18 April, Sunday

Time Temperature Precipitation Wind Pressure Humidity
00:00 0°C° 0.4 mm 5 mps 717 mmHg 95%
01:00 -1°C° 0.4 mm 4 mps 717 mmHg 98%
02:00 -1°C° 0.4 mm 4 mps 717 mmHg 98%
03:00 -1°C° 0.4 mm 3 mps 718 mmHg 97%
04:00 -1°C° 0.4 mm 3 mps 718 mmHg 97%
05:00 -1°C° 0.4 mm 3 mps 718 mmHg 95%
06:00 -1°C° 0.4 mm 3 mps 719 mmHg 92%
07:00 -1°C° 0.4 mm 3 mps 719 mmHg 90%
08:00 -1°C° 0.2 mm 4 mps 720 mmHg 86%
09:00 -1°C° 0.2 mm 4 mps 720 mmHg 83%
10:00 0°C° 0.2 mm 4 mps 720 mmHg 80%
11:00 0°C° 0.1 mm 5 mps 721 mmHg 78%
12:00 +1°C° 0.1 mm 5 mps 721 mmHg 75%
13:00 +1°C° 0.1 mm 5 mps 721 mmHg 73%
14:00 +1°C° 0 mm 4 mps 721 mmHg 72%
15:00 +1°C° 0 mm 4 mps 721 mmHg 70%
16:00 +2°C° 0 mm 3 mps 721 mmHg 69%
17:00 +2°C° 0 mm 2 mps 721 mmHg 75%
18:00 -1°C° 0 mm 2 mps 721 mmHg 81%
19:00 0°C° 0 mm 1 mps 721 mmHg 88%
20:00 0°C° 0 mm 1 mps 721 mmHg 87%
21:00 -3°C° 0 mm 2 mps 721 mmHg 87%
22:00 -3°C° 0 mm 2 mps 721 mmHg 87%
23:00 -3°C° 0 mm 2 mps 721 mmHg 87%

19 April, Monday

Time Temperature Precipitation Wind Pressure Humidity
00:00 -3°C° 0 mm 2 mps 720 mmHg 87%
01:00 -4°C° 0 mm 3 mps 720 mmHg 86%
02:00 -4°C° 0 mm 3 mps 719 mmHg 86%
03:00 -4°C° 0 mm 3 mps 719 mmHg 85%
04:00 -5°C° 0 mm 3 mps 719 mmHg 84%
05:00 -2°C° 0 mm 3 mps 718 mmHg 79%
06:00 -1°C° 0 mm 3 mps 718 mmHg 73%
07:00 +1°C° 0 mm 3 mps 718 mmHg 68%
08:00 +3°C° 0 mm 3 mps 717 mmHg 63%
09:00 +5°C° 0 mm 3 mps 717 mmHg 57%
10:00 +8°C° 0 mm 3 mps 716 mmHg 52%
11:00 +8°C° 0 mm 4 mps 716 mmHg 52%
12:00 +10°C° 0 mm 4 mps 715 mmHg 52%
13:00 +11°C° 0 mm 4 mps 714 mmHg 52%
14:00 +10°C° 0 mm 4 mps 714 mmHg 54%
15:00 +10°C° 0 mm 4 mps 714 mmHg 56%
16:00 +10°C° 0 mm 4 mps 713 mmHg 58%
17:00 +8°C° 0 mm 3 mps 713 mmHg 66%
18:00 +4°C° 0 mm 3 mps 713 mmHg 74%
19:00 +2°C° 0 mm 3 mps 712 mmHg 82%
20:00 +2°C° 0 mm 2 mps 712 mmHg 83%
21:00 +2°C° 0 mm 2 mps 712 mmHg 83%
22:00 +1°C° 0 mm 2 mps 712 mmHg 84%
23:00 -1°C° 0 mm 2 mps 713 mmHg 86%

20 April, Tuesday

Time Temperature Precipitation Wind Pressure Humidity
00:00 -2°C° 0 mm 3 mps 715 mmHg 89%
01:00 -5°C° 0 mm 3 mps 717 mmHg 92%
02:00 -4°C° 0 mm 3 mps 717 mmHg 91%
03:00 -2°C° 0 mm 3 mps 718 mmHg 89%
04:00 -1°C° 0 mm 2 mps 718 mmHg 88%
05:00 +1°C° 0 mm 2 mps 719 mmHg 85%
06:00 +1°C° 0 mm 2 mps 719 mmHg 83%
07:00 +2°C° 0 mm 2 mps 720 mmHg 80%
08:00 +3°C° 0 mm 2 mps 720 mmHg 71%
09:00 +4°C° 0 mm 2 mps 720 mmHg 61%
10:00 +5°C° 0 mm 2 mps 720 mmHg 52%
11:00 +5°C° 0 mm 2 mps 720 mmHg 50%
12:00 +6°C° 0 mm 2 mps 719 mmHg 47%
13:00 +7°C° 0 mm 2 mps 719 mmHg 44%
14:00 +6°C° 0 mm 2 mps 719 mmHg 46%
15:00 +6°C° 0 mm 2 mps 718 mmHg 47%
16:00 +6°C° 0 mm 2 mps 718 mmHg 49%
17:00 +4°C° 0 mm 2 mps 718 mmHg 56%
18:00 +4°C° 0 mm 1 mps 719 mmHg 63%
19:00 +3°C° 0 mm 1 mps 719 mmHg 70%
20:00 +2°C° 0 mm 1 mps 719 mmHg 73%
21:00 +2°C° 0 mm 1 mps 719 mmHg 77%
22:00 +2°C° 0 mm 1 mps 720 mmHg 80%
23:00 +2°C° 0.1 mm 1 mps 719 mmHg 86%

21 April, Wednesday

Time Temperature Precipitation Wind Pressure Humidity
00:00 +2°C° 0.1 mm 1 mps 719 mmHg 91%
01:00 +1°C° 0.1 mm 1 mps 719 mmHg 97%
02:00 +1°C° 0.2 mm 1 mps 719 mmHg 97%
03:00 -1°C° 0.2 mm 2 mps 719 mmHg 97%
04:00 -1°C° 0.2 mm 2 mps 719 mmHg 97%
05:00 +1°C° 0.1 mm 2 mps 719 mmHg 94%
06:00 0°C° 0.1 mm 3 mps 719 mmHg 91%
07:00 0°C° 0.1 mm 3 mps 720 mmHg 89%
08:00 0°C° 0.1 mm 3 mps 720 mmHg 86%
09:00 +1°C° 0.1 mm 3 mps 720 mmHg 83%
10:00 +2°C° 0.1 mm 2 mps 720 mmHg 80%
11:00 +3°C° 0 mm 2 mps 719 mmHg 78%
12:00 +3°C° 0 mm 2 mps 719 mmHg 76%
13:00 +3°C° 0 mm 2 mps 719 mmHg 73%
14:00 +3°C° 0 mm 2 mps 718 mmHg 73%
15:00 +4°C° 0 mm 2 mps 718 mmHg 72%
16:00 +4°C° 0 mm 2 mps 718 mmHg 71%
17:00 +3°C° 0 mm 1 mps 718 mmHg 77%
18:00 +2°C° 0 mm 1 mps 718 mmHg 83%
19:00 0°C° 0 mm 1 mps 718 mmHg 89%
20:00 0°C° 0 mm 1 mps 718 mmHg 91%
21:00 -1°C° 0 mm 1 mps 718 mmHg 93%
22:00 -3°C° 0 mm 2 mps 719 mmHg 95%
23:00 -3°C° 0 mm 2 mps 718 mmHg 94%
Show more

We Need Your Consent

Meteoprog and our Service Providers may store and access personal data such as cookies, device identifiers or other similar technologies on your device and process such data to personalise content and ads, as well as provide social media features and to analyse the traffic.

  • Store and/or access information on your device

    Cookies, device identifiers or other information can be stored or accessed on your device for the purposes indicated above.

  • Personalised ads and content, ad and content measurement, audience insights, and products development

    Ads and content can be personalised based on a profile. More data can be added to better personalise ads and content. Ad and content performance can be measured. Insights about the audience who saw the ads and content can be derived. Such data can be used to develop or improve user’s experience, systems and software.

By clicking ‘I Agree’ you will allow the use of indicated cookies, device identifiers, web beacons or other similar technologies. Your settings can be changed in the browser on your device.

For certain purposes, legitimate interests may be relied on, rather than consent. You can read more about this in our Privacy and Cookie Policy.